JBU1367 KHPN-KFLL

Flight info

Callsign JBU1367
Flight time 2h 30m
Altitude 38000
Route WHITE Q409 CRPLR KOOKI Q161 CHIEZ Y291 MAJIK CUUDA3
Aircraft A320/M-SDE3FGHIRWY/LB1

Departure

Time 2026-05-08 01:27
Airport Westchester County Airport (KHPN)

Arrival

Time 2026-05-08 03:58
Airport Fort Lauderdale Hollywood International Airport (KFLL)
Time Latitude Longitude Altitude Speed Heading
2026-05-08 01:09 41.06840 -73.70493 420 ft 0 kts 59°
2026-05-08 01:19 41.06839 -73.70495 420 ft 1 kts 59°
2026-05-08 01:20 41.06830 -73.70514 412 ft 3 kts 60°
2026-05-08 01:20 41.06823 -73.70536 418 ft 3 kts 96°
2026-05-08 01:20 41.06829 -73.70557 417 ft 3 kts 138°
2026-05-08 01:20 41.06841 -73.70568 416 ft 1 kts 150°
2026-05-08 01:21 41.06853 -73.70578 413 ft 2 kts 149°
2026-05-08 01:21 41.06856 -73.70580 412 ft 0 kts 149°
2026-05-08 01:23 41.06849 -73.70575 411 ft 2 kts 149°
2026-05-08 01:23 41.06827 -73.70558 417 ft 5 kts 149°
2026-05-08 01:24 41.06792 -73.70530 411 ft 7 kts 149°
2026-05-08 01:24 41.06742 -73.70492 418 ft 9 kts 149°
2026-05-08 01:24 41.06679 -73.70443 415 ft 12 kts 149°
2026-05-08 01:24 41.06601 -73.70383 419 ft 14 kts 149°
2026-05-08 01:25 41.06509 -73.70311 413 ft 17 kts 151°
2026-05-08 01:25 41.06397 -73.70228 415 ft 20 kts 150°
2026-05-08 01:25 41.06273 -73.70134 420 ft 22 kts 150°
2026-05-08 01:25 41.06134 -73.70027 417 ft 24 kts 149°
2026-05-08 01:26 41.06052 -73.70055 415 ft 13 kts 232°
2026-05-08 01:26 41.06030 -73.70162 412 ft 10 kts 317°
2026-05-08 01:26 41.06043 -73.70172 418 ft 0 kts 329°
2026-05-08 01:26 41.06109 -73.70222 418 ft 43 kts 330°
2026-05-08 01:27 41.06590 -73.70590 418 ft 112 kts 330°
2026-05-08 01:27 41.07393 -73.71207 620 ft 141 kts 329°
2026-05-08 01:27 41.08226 -73.71863 1282 ft 138 kts 323°
2026-05-08 01:27 41.08802 -73.72781 1981 ft 126 kts 293°
2026-05-08 01:28 41.08741 -73.74015 2133 ft 155 kts 252°
2026-05-08 01:28 41.08223 -73.75364 2412 ft 175 kts 240°
2026-05-08 01:28 41.07497 -73.76787 2676 ft 199 kts 238°
2026-05-08 01:28 41.06655 -73.78383 2968 ft 223 kts 237°
2026-05-08 01:29 41.05719 -73.80162 3370 ft 248 kts 237°
2026-05-08 01:29 41.04712 -73.82091 4141 ft 258 kts 237°
2026-05-08 01:29 41.03701 -73.84051 5182 ft 258 kts 237°
2026-05-08 01:29 41.02691 -73.86008 6217 ft 257 kts 237°
2026-05-08 01:30 41.01659 -73.87994 7183 ft 259 kts 237°
2026-05-08 01:30 41.00608 -73.89943 8092 ft 263 kts 232°
2026-05-08 01:30 40.99135 -73.91432 8925 ft 273 kts 211°
2026-05-08 01:30 40.97393 -73.92489 9821 ft 277 kts 208°
2026-05-08 01:31 40.95580 -73.93506 10339 ft 294 kts 207°
2026-05-08 01:31 40.93623 -73.94599 10619 ft 315 kts 207°
2026-05-08 01:31 40.91580 -73.95738 11252 ft 321 kts 207°
2026-05-08 01:31 40.89506 -73.96877 11805 ft 324 kts 207°
2026-05-08 01:32 40.87424 -73.98004 11948 ft 323 kts 207°
2026-05-08 01:32 40.85342 -73.99124 11982 ft 322 kts 207°
2026-05-08 01:32 40.83268 -74.00218 11991 ft 321 kts 207°
2026-05-08 01:32 40.81191 -74.01306 11995 ft 321 kts 207°
2026-05-08 01:33 40.79119 -74.02392 11992 ft 321 kts 207°
2026-05-08 01:33 40.76949 -74.03202 12099 ft 329 kts 199°
2026-05-08 01:33 40.75468 -74.03646 12598 ft 330 kts 199°
2026-05-08 01:33 40.72470 -74.04520 13737 ft 330 kts 199°
2026-05-08 01:34 40.70979 -74.04947 14217 ft 331 kts 199°
2026-05-08 01:34 40.68727 -74.05592 14935 ft 332 kts 200°
2026-05-08 01:34 40.66472 -74.06243 15647 ft 332 kts 200°
2026-05-08 01:34 40.64190 -74.06906 16382 ft 331 kts 200°
2026-05-08 01:35 40.61939 -74.07558 17097 ft 332 kts 200°
2026-05-08 01:35 40.59674 -74.08210 17805 ft 334 kts 200°
2026-05-08 01:35 40.57402 -74.08867 18447 ft 336 kts 200°
2026-05-08 01:35 40.55113 -74.09530 19034 ft 338 kts 200°
2026-05-08 01:36 40.52804 -74.10200 19625 ft 341 kts 200°
2026-05-08 01:36 40.50473 -74.10871 20221 ft 344 kts 200°
2026-05-08 01:36 40.48124 -74.11547 20800 ft 347 kts 201°
2026-05-08 01:36 40.45757 -74.12232 21323 ft 350 kts 201°
2026-05-08 01:37 40.43368 -74.12928 21853 ft 354 kts 201°
2026-05-08 01:37 40.40951 -74.13629 22415 ft 357 kts 201°
2026-05-08 01:37 40.38512 -74.14333 22817 ft 360 kts 201°
2026-05-08 01:37 40.36064 -74.15035 22901 ft 360 kts 201°
2026-05-08 01:38 40.33617 -74.15733 22909 ft 360 kts 201°
2026-05-08 01:38 40.31171 -74.16428 22912 ft 360 kts 201°
2026-05-08 01:38 40.28727 -74.17124 22914 ft 360 kts 201°
2026-05-08 01:38 40.26279 -74.17820 22915 ft 360 kts 201°
2026-05-08 01:39 40.23834 -74.18516 22900 ft 360 kts 201°
2026-05-08 01:39 40.21386 -74.19213 22916 ft 360 kts 201°
2026-05-08 01:39 40.18933 -74.19915 22915 ft 361 kts 201°
2026-05-08 01:39 40.16485 -74.20617 22915 ft 361 kts 201°
2026-05-08 01:40 40.14030 -74.21319 22912 ft 361 kts 201°
2026-05-08 01:40 40.11583 -74.22017 22914 ft 361 kts 201°
2026-05-08 01:40 40.09125 -74.22718 22998 ft 363 kts 201°
2026-05-08 01:40 40.06648 -74.23427 23558 ft 365 kts 201°
2026-05-08 01:41 40.04160 -74.24141 24011 ft 368 kts 202°
2026-05-08 01:41 40.01704 -74.25022 24450 ft 362 kts 209°
2026-05-08 01:41 39.99420 -74.26424 24902 ft 355 kts 218°
2026-05-08 01:41 39.97398 -74.28232 25342 ft 352 kts 223°
2026-05-08 01:42 39.95421 -74.30131 25782 ft 354 kts 224°
2026-05-08 01:42 39.93435 -74.32035 26217 ft 355 kts 224°
2026-05-08 01:42 39.91435 -74.33947 26637 ft 357 kts 224°
2026-05-08 01:42 39.89425 -74.35863 27088 ft 359 kts 224°
2026-05-08 01:43 39.87405 -74.37783 27530 ft 360 kts 224°
2026-05-08 01:43 39.85378 -74.39707 27965 ft 361 kts 224°
2026-05-08 01:43 39.83346 -74.41637 28306 ft 363 kts 224°
2026-05-08 01:43 39.81369 -74.43670 28690 ft 360 kts 230°
2026-05-08 01:44 39.79611 -74.45972 29104 ft 359 kts 232°
2026-05-08 01:44 39.77861 -74.48300 29504 ft 361 kts 232°
2026-05-08 01:44 39.76106 -74.50636 29891 ft 363 kts 233°
2026-05-08 01:44 39.74338 -74.52987 30224 ft 364 kts 233°
2026-05-08 01:45 39.72560 -74.55345 30533 ft 366 kts 233°
2026-05-08 01:45 39.70775 -74.57708 30841 ft 368 kts 233°
2026-05-08 01:45 39.68975 -74.60087 31146 ft 370 kts 233°
2026-05-08 01:45 39.67175 -74.62467 31523 ft 369 kts 233°
2026-05-08 01:46 39.65379 -74.64836 31962 ft 367 kts 233°
2026-05-08 01:46 39.63566 -74.67228 32409 ft 366 kts 233°
2026-05-08 01:46 39.61783 -74.69579 32844 ft 365 kts 233°
2026-05-08 01:46 39.60006 -74.71920 33276 ft 364 kts 233°
2026-05-08 01:47 39.58233 -74.74252 33714 ft 363 kts 233°
2026-05-08 01:47 39.56464 -74.76574 34116 ft 362 kts 233°
2026-05-08 01:47 39.54695 -74.78894 34454 ft 361 kts 233°
2026-05-08 01:48 39.51160 -74.83534 35054 ft 363 kts 233°
2026-05-08 01:48 39.49389 -74.85862 35335 ft 363 kts 233°
2026-05-08 01:48 39.47614 -74.88193 35568 ft 364 kts 233°
2026-05-08 01:48 39.45834 -74.90529 35826 ft 365 kts 233°
2026-05-08 01:49 39.44047 -74.92869 36085 ft 366 kts 232°
2026-05-08 01:49 39.42257 -74.95213 36349 ft 366 kts 232°
2026-05-08 01:49 39.40463 -74.97558 36613 ft 367 kts 232°
2026-05-08 01:49 39.38664 -74.99906 36873 ft 368 kts 232°
2026-05-08 01:50 39.36864 -75.02253 37132 ft 368 kts 232°
2026-05-08 01:50 39.35061 -75.04603 37385 ft 369 kts 232°
2026-05-08 01:50 39.33250 -75.06956 37674 ft 369 kts 232°
2026-05-08 01:50 39.31439 -75.09310 37857 ft 370 kts 232°
2026-05-08 01:51 39.27744 -75.13968 37887 ft 373 kts 230°
2026-05-08 01:51 39.23848 -75.18495 37896 ft 375 kts 229°
2026-05-08 01:52 39.19949 -75.22961 37892 ft 375 kts 229°
2026-05-08 01:52 39.16078 -75.27453 37897 ft 374 kts 230°
2026-05-08 01:53 39.12220 -75.31958 37899 ft 375 kts 230°
2026-05-08 01:53 39.08352 -75.36458 37865 ft 375 kts 230°
2026-05-08 01:54 39.04468 -75.40942 37885 ft 377 kts 226°
2026-05-08 01:54 39.02260 -75.42851 37907 ft 389 kts 217°
2026-05-08 01:54 38.99706 -75.44179 37905 ft 404 kts 206°
2026-05-08 01:55 38.96884 -75.44818 37905 ft 419 kts 198°
2026-05-08 01:55 38.93985 -75.45203 37900 ft 419 kts 198°
2026-05-08 01:55 38.88145 -75.46002 37861 ft 427 kts 198°
2026-05-08 01:56 38.82189 -75.46839 37920 ft 435 kts 198°
2026-05-08 01:56 38.76074 -75.47682 37923 ft 442 kts 197°
2026-05-08 01:57 38.69930 -75.48515 37924 ft 444 kts 197°
2026-05-08 01:57 38.63779 -75.49342 37921 ft 445 kts 198°
2026-05-08 01:58 38.57628 -75.50178 37930 ft 444 kts 198°
2026-05-08 01:58 38.51471 -75.51022 37940 ft 445 kts 198°
2026-05-08 01:59 38.45308 -75.51863 37949 ft 446 kts 198°
2026-05-08 01:59 38.39139 -75.52689 37931 ft 446 kts 198°
2026-05-08 02:00 38.36107 -75.53279 37937 ft 433 kts 206°
2026-05-08 02:00 38.33298 -75.54439 37945 ft 417 kts 215°
2026-05-08 02:00 38.30770 -75.56112 37951 ft 404 kts 223°
2026-05-08 02:00 38.28468 -75.58114 37955 ft 400 kts 225°
2026-05-08 02:01 38.23874 -75.62140 37957 ft 401 kts 224°
2026-05-08 02:01 38.19240 -75.66167 37963 ft 400 kts 225°
2026-05-08 02:02 38.14645 -75.70153 37975 ft 399 kts 225°
2026-05-08 02:02 38.10063 -75.74126 37971 ft 398 kts 225°
2026-05-08 02:03 38.05490 -75.78086 37967 ft 398 kts 225°
2026-05-08 02:03 38.00920 -75.82042 37934 ft 397 kts 225°
2026-05-08 02:04 37.97129 -75.85318 37966 ft 396 kts 225°
2026-05-08 02:04 37.92578 -75.89238 37979 ft 395 kts 225°
2026-05-08 02:05 37.88010 -75.93172 37989 ft 394 kts 226°
2026-05-08 02:05 37.83496 -75.97055 37943 ft 391 kts 226°
2026-05-08 02:06 37.78998 -76.00913 37944 ft 389 kts 226°
2026-05-08 02:06 37.74528 -76.04748 37942 ft 388 kts 226°
2026-05-08 02:07 37.70062 -76.08576 37936 ft 388 kts 226°
2026-05-08 02:07 37.65593 -76.12392 37945 ft 388 kts 226°
2026-05-08 02:08 37.61035 -76.16098 37948 ft 400 kts 219°
2026-05-08 02:08 37.58372 -76.17366 37955 ft 420 kts 209°
2026-05-08 02:08 37.55529 -76.18284 37956 ft 422 kts 209°
2026-05-08 02:09 37.49822 -76.20087 37963 ft 423 kts 208°
2026-05-08 02:09 37.44108 -76.21896 37964 ft 424 kts 209°
2026-05-08 02:10 37.38390 -76.23726 37969 ft 424 kts 209°
2026-05-08 02:10 37.32671 -76.25547 37953 ft 424 kts 209°
2026-05-08 02:11 37.26952 -76.27354 37976 ft 424 kts 209°
2026-05-08 02:11 37.21236 -76.29167 37985 ft 423 kts 209°
2026-05-08 02:12 37.15530 -76.30979 37920 ft 423 kts 209°
2026-05-08 02:12 37.09817 -76.32790 37961 ft 423 kts 210°
2026-05-08 02:13 37.04075 -76.34604 37982 ft 423 kts 210°
2026-05-08 02:13 36.98374 -76.36408 37984 ft 423 kts 210°
2026-05-08 02:14 36.92672 -76.38207 37918 ft 423 kts 210°
2026-05-08 02:14 36.86967 -76.39997 37958 ft 423 kts 210°
2026-05-08 02:15 36.81260 -76.41788 37986 ft 423 kts 210°
2026-05-08 02:15 36.75555 -76.43583 37993 ft 423 kts 210°
2026-05-08 02:16 36.69851 -76.45368 37956 ft 423 kts 210°
2026-05-08 02:16 36.64147 -76.47150 37948 ft 423 kts 210°
2026-05-08 02:17 36.58443 -76.48932 37965 ft 423 kts 210°
2026-05-08 02:17 36.52732 -76.50710 37994 ft 423 kts 210°
2026-05-08 02:18 36.47040 -76.52475 37957 ft 421 kts 210°
2026-05-08 02:18 36.41351 -76.54238 37941 ft 422 kts 210°
2026-05-08 02:19 36.35644 -76.56011 37958 ft 423 kts 210°
2026-05-08 02:19 36.29937 -76.57783 37972 ft 423 kts 210°
2026-05-08 02:20 36.24220 -76.59550 37979 ft 423 kts 210°
2026-05-08 02:20 36.18468 -76.61323 37949 ft 423 kts 209°
2026-05-08 02:21 36.12748 -76.63087 37971 ft 424 kts 209°
2026-05-08 02:21 36.07023 -76.64854 37995 ft 424 kts 209°
2026-05-08 02:22 36.01295 -76.66622 38001 ft 425 kts 209°
2026-05-08 02:22 35.95550 -76.68379 37964 ft 426 kts 208°
2026-05-08 02:23 35.89893 -76.70368 37970 ft 411 kts 217°
2026-05-08 02:23 35.84826 -76.73422 37957 ft 405 kts 220°
2026-05-08 02:24 35.79775 -76.76513 37943 ft 405 kts 220°
2026-05-08 02:24 35.74733 -76.79582 37951 ft 405 kts 219°
2026-05-08 02:25 35.69680 -76.82661 37947 ft 405 kts 219°
2026-05-08 02:25 35.64623 -76.85733 37956 ft 405 kts 219°
2026-05-08 02:26 35.59565 -76.88801 37965 ft 405 kts 220°
2026-05-08 02:26 35.54514 -76.91874 37969 ft 405 kts 220°
2026-05-08 02:27 35.49480 -76.94974 37966 ft 406 kts 219°
2026-05-08 02:27 35.44433 -76.98084 37980 ft 406 kts 219°
2026-05-08 02:28 35.39335 -77.01202 37984 ft 407 kts 219°
2026-05-08 02:28 35.34268 -77.04295 37983 ft 407 kts 219°
2026-05-08 02:29 35.29201 -77.07382 37978 ft 407 kts 219°
2026-05-08 02:29 35.24134 -77.10468 37975 ft 407 kts 219°
2026-05-08 02:30 35.19067 -77.13555 37975 ft 407 kts 219°
2026-05-08 02:30 35.14000 -77.16630 38000 ft 407 kts 219°
2026-05-08 02:31 35.08933 -77.19700 38000 ft 407 kts 219°
2026-05-08 02:31 35.03863 -77.22766 37962 ft 406 kts 219°
2026-05-08 02:32 34.98801 -77.25835 37993 ft 406 kts 219°
2026-05-08 02:32 34.93737 -77.28902 37986 ft 406 kts 219°
2026-05-08 02:33 34.88662 -77.31961 37961 ft 407 kts 219°
2026-05-08 02:33 34.83590 -77.35009 37883 ft 406 kts 219°
2026-05-08 02:34 34.78526 -77.38051 37914 ft 406 kts 219°
2026-05-08 02:34 34.73452 -77.41097 37930 ft 407 kts 219°
2026-05-08 02:35 34.68370 -77.44154 37945 ft 408 kts 219°
2026-05-08 02:35 34.63243 -77.47226 37953 ft 408 kts 219°
2026-05-08 02:36 34.58145 -77.50279 37922 ft 409 kts 219°
2026-05-08 02:36 34.53024 -77.53302 37939 ft 414 kts 216°
2026-05-08 02:37 34.51209 -77.54104 37941 ft 426 kts 209°
2026-05-08 02:37 34.48259 -77.54879 37944 ft 437 kts 204°
2026-05-08 02:37 34.42266 -77.56193 37940 ft 438 kts 204°
2026-05-08 02:38 34.36257 -77.57485 37940 ft 438 kts 204°
2026-05-08 02:38 34.30254 -77.58802 37901 ft 439 kts 204°
2026-05-08 02:39 34.24246 -77.60133 37926 ft 439 kts 204°
2026-05-08 02:39 34.18227 -77.61466 37925 ft 439 kts 204°
2026-05-08 02:40 34.12168 -77.62791 37940 ft 440 kts 204°
2026-05-08 02:40 34.06151 -77.64103 37910 ft 439 kts 204°
2026-05-08 02:41 34.00147 -77.65419 37911 ft 439 kts 204°
2026-05-08 02:41 33.94143 -77.66740 37909 ft 439 kts 204°
2026-05-08 02:42 33.88135 -77.68054 37907 ft 439 kts 204°
2026-05-08 02:42 33.82127 -77.69365 37911 ft 440 kts 204°
2026-05-08 02:43 33.76103 -77.70676 37903 ft 440 kts 204°
2026-05-08 02:43 33.70068 -77.71984 37910 ft 441 kts 204°
2026-05-08 02:44 33.64199 -77.73720 37918 ft 432 kts 209°
2026-05-08 02:44 33.58395 -77.75631 37876 ft 433 kts 209°
2026-05-08 02:45 33.52573 -77.77538 37901 ft 434 kts 208°
2026-05-08 02:45 33.46739 -77.79437 37923 ft 435 kts 208°
2026-05-08 02:46 33.40898 -77.81342 37906 ft 434 kts 209°
2026-05-08 02:46 33.35075 -77.83231 37860 ft 434 kts 208°
2026-05-08 02:47 33.29251 -77.85124 37916 ft 434 kts 208°
2026-05-08 02:47 33.23383 -77.87030 37918 ft 434 kts 208°
2026-05-08 02:48 33.17562 -77.88926 37925 ft 434 kts 208°
2026-05-08 02:48 33.11730 -77.90814 37926 ft 434 kts 208°
2026-05-08 02:49 33.05896 -77.92697 37934 ft 434 kts 207°
2026-05-08 02:49 33.00079 -77.94603 37930 ft 432 kts 208°
2026-05-08 02:50 32.94312 -77.96595 37927 ft 431 kts 209°
2026-05-08 02:50 32.88545 -77.98602 37934 ft 432 kts 209°
2026-05-08 02:51 32.82771 -78.00588 37934 ft 432 kts 208°
2026-05-08 02:51 32.76982 -78.02552 37937 ft 433 kts 208°
2026-05-08 02:52 32.71194 -78.04512 37937 ft 432 kts 208°
2026-05-08 02:52 32.65414 -78.06476 37945 ft 432 kts 208°
2026-05-08 02:53 32.59634 -78.08443 37942 ft 432 kts 208°
2026-05-08 02:53 32.53851 -78.10401 37947 ft 432 kts 208°
2026-05-08 02:54 32.48072 -78.12351 37949 ft 431 kts 208°
2026-05-08 02:54 32.42266 -78.14322 37950 ft 431 kts 208°
2026-05-08 02:55 32.33606 -78.17247 37954 ft 431 kts 208°
2026-05-08 02:56 32.27830 -78.19196 37949 ft 432 kts 207°
2026-05-08 02:56 32.22054 -78.21136 37961 ft 432 kts 207°
2026-05-08 02:57 32.16279 -78.23076 37967 ft 431 kts 207°
2026-05-08 02:57 32.10509 -78.25022 37967 ft 431 kts 207°
2026-05-08 02:58 32.04729 -78.26952 37965 ft 433 kts 206°
2026-05-08 02:58 31.98900 -78.28902 37972 ft 436 kts 206°
2026-05-08 02:59 31.93054 -78.30861 37975 ft 437 kts 206°
2026-05-08 02:59 31.87205 -78.32811 37965 ft 437 kts 206°
2026-05-08 03:00 31.81349 -78.34767 37989 ft 438 kts 206°
2026-05-08 03:00 31.75476 -78.36720 37977 ft 439 kts 206°
2026-05-08 03:01 31.69591 -78.38681 37988 ft 440 kts 206°
2026-05-08 03:01 31.63684 -78.40643 37999 ft 441 kts 206°
2026-05-08 03:02 31.57767 -78.42604 38004 ft 442 kts 206°
2026-05-08 03:02 31.51806 -78.44576 37965 ft 443 kts 205°
2026-05-08 03:03 31.45854 -78.46527 37970 ft 445 kts 205°
2026-05-08 03:03 31.39870 -78.48464 37986 ft 447 kts 205°
2026-05-08 03:04 31.33866 -78.50399 38002 ft 448 kts 205°
2026-05-08 03:04 31.27857 -78.52338 37981 ft 448 kts 205°
2026-05-08 03:05 31.21831 -78.54290 37986 ft 450 kts 205°
2026-05-08 03:05 31.15787 -78.56245 37997 ft 452 kts 205°
2026-05-08 03:06 31.09720 -78.58191 38010 ft 453 kts 205°
2026-05-08 03:06 31.03646 -78.60144 38017 ft 453 kts 205°
2026-05-08 03:07 30.97569 -78.62104 37996 ft 454 kts 205°
2026-05-08 03:07 30.91469 -78.64072 38008 ft 455 kts 205°
2026-05-08 03:08 30.85359 -78.66036 38019 ft 456 kts 205°
2026-05-08 03:08 30.79239 -78.67988 38028 ft 456 kts 205°
2026-05-08 03:09 30.73113 -78.69941 37985 ft 456 kts 204°
2026-05-08 03:09 30.67981 -78.71583 38001 ft 457 kts 204°
2026-05-08 03:10 30.61845 -78.73547 38016 ft 458 kts 204°
2026-05-08 03:10 30.55696 -78.75508 38024 ft 458 kts 204°
2026-05-08 03:11 30.49542 -78.77464 38028 ft 459 kts 204°
2026-05-08 03:11 30.43383 -78.79420 38019 ft 459 kts 204°
2026-05-08 03:12 30.37218 -78.81378 38023 ft 460 kts 204°
2026-05-08 03:12 30.31037 -78.83335 38028 ft 461 kts 204°
2026-05-08 03:13 30.24853 -78.85292 38028 ft 461 kts 204°
2026-05-08 03:13 30.18663 -78.87249 38034 ft 461 kts 204°
2026-05-08 03:14 30.12470 -78.89205 38033 ft 461 kts 204°
2026-05-08 03:14 30.06237 -78.91169 38030 ft 461 kts 204°
2026-05-08 03:15 30.00044 -78.93120 38036 ft 461 kts 204°
2026-05-08 03:15 29.93851 -78.95077 38036 ft 461 kts 204°
2026-05-08 03:16 29.87659 -78.97021 38017 ft 461 kts 204°
2026-05-08 03:16 29.81458 -78.98957 38036 ft 462 kts 202°
2026-05-08 03:17 29.75053 -79.00250 38042 ft 469 kts 197°
2026-05-08 03:17 29.68611 -79.01433 38043 ft 469 kts 197°
2026-05-08 03:18 29.62167 -79.02610 38025 ft 469 kts 197°
2026-05-08 03:18 29.55729 -79.03798 38037 ft 468 kts 197°
2026-05-08 03:19 29.49296 -79.04989 38038 ft 468 kts 197°
2026-05-08 03:19 29.42860 -79.06174 38048 ft 468 kts 197°
2026-05-08 03:20 29.36438 -79.07353 38001 ft 466 kts 197°
2026-05-08 03:20 29.30041 -79.08530 38021 ft 466 kts 197°
2026-05-08 03:21 29.23640 -79.09696 38025 ft 466 kts 197°
2026-05-08 03:21 29.17245 -79.10873 38027 ft 466 kts 197°
2026-05-08 03:22 29.10798 -79.12050 38030 ft 466 kts 197°
2026-05-08 03:22 29.04428 -79.13208 38028 ft 467 kts 196°
2026-05-08 03:23 28.97961 -79.14391 38028 ft 468 kts 196°
2026-05-08 03:23 28.91519 -79.15568 38042 ft 469 kts 196°
2026-05-08 03:24 28.85072 -79.16740 38045 ft 469 kts 196°
2026-05-08 03:24 28.78621 -79.17912 38032 ft 470 kts 196°
2026-05-08 03:25 28.72158 -79.19094 38041 ft 470 kts 195°
2026-05-08 03:25 28.65695 -79.20265 38046 ft 471 kts 195°
2026-05-08 03:26 28.59225 -79.21440 38054 ft 471 kts 195°
2026-05-08 03:26 28.52749 -79.22601 38045 ft 471 kts 195°
2026-05-08 03:27 28.46273 -79.23759 38045 ft 471 kts 195°
2026-05-08 03:27 28.39801 -79.24929 38052 ft 471 kts 195°
2026-05-08 03:28 28.33328 -79.26106 38054 ft 470 kts 197°
2026-05-08 03:28 28.27064 -79.28005 38055 ft 465 kts 202°
2026-05-08 03:29 28.20849 -79.30032 38039 ft 465 kts 201°
2026-05-08 03:29 28.14628 -79.32054 38052 ft 465 kts 201°
2026-05-08 03:30 28.05253 -79.35082 38059 ft 465 kts 201°
2026-05-08 03:31 27.92810 -79.39100 38031 ft 462 kts 201°
2026-05-08 03:31 27.86647 -79.41085 36537 ft 461 kts 201°
2026-05-08 03:32 27.83580 -79.42076 36269 ft 459 kts 201°
2026-05-08 03:32 27.80480 -79.43083 35665 ft 466 kts 202°
2026-05-08 03:32 27.77358 -79.44096 34795 ft 468 kts 202°
2026-05-08 03:32 27.74216 -79.45112 34198 ft 470 kts 202°
2026-05-08 03:33 27.71060 -79.46128 33600 ft 474 kts 202°
2026-05-08 03:33 27.67882 -79.47149 33034 ft 476 kts 202°
2026-05-08 03:33 27.64690 -79.48170 32448 ft 478 kts 201°
2026-05-08 03:33 27.61491 -79.49191 31878 ft 475 kts 201°
2026-05-08 03:34 27.58352 -79.50186 31564 ft 461 kts 201°
2026-05-08 03:34 27.55247 -79.51172 31056 ft 454 kts 201°
2026-05-08 03:34 27.52227 -79.52137 30499 ft 449 kts 202°
2026-05-08 03:34 27.49233 -79.53098 29916 ft 445 kts 202°
2026-05-08 03:35 27.46271 -79.54052 29260 ft 441 kts 202°
2026-05-08 03:35 27.43331 -79.54996 28629 ft 437 kts 202°
2026-05-08 03:35 27.40414 -79.55930 28022 ft 433 kts 202°
2026-05-08 03:35 27.37552 -79.56837 27827 ft 420 kts 202°
2026-05-08 03:36 27.34770 -79.57709 27499 ft 412 kts 202°
2026-05-08 03:36 27.32026 -79.58567 27065 ft 407 kts 202°
2026-05-08 03:36 27.29311 -79.59421 26619 ft 404 kts 202°
2026-05-08 03:36 27.26615 -79.60274 26178 ft 401 kts 202°
2026-05-08 03:37 27.23937 -79.61120 25759 ft 399 kts 202°
2026-05-08 03:37 27.21270 -79.61959 25352 ft 397 kts 202°
2026-05-08 03:37 27.18620 -79.62791 24959 ft 394 kts 202°
2026-05-08 03:37 27.15997 -79.63623 24486 ft 389 kts 202°
2026-05-08 03:38 27.13407 -79.64453 23733 ft 385 kts 202°
2026-05-08 03:38 27.10845 -79.65277 22861 ft 381 kts 202°
2026-05-08 03:38 27.08313 -79.66092 21958 ft 377 kts 201°
2026-05-08 03:38 27.05789 -79.66903 21324 ft 378 kts 201°
2026-05-08 03:39 27.03274 -79.67707 20846 ft 375 kts 201°
2026-05-08 03:39 27.00778 -79.68504 20423 ft 371 kts 201°
2026-05-08 03:39 26.98293 -79.69298 19946 ft 370 kts 201°
2026-05-08 03:39 26.95825 -79.70085 19442 ft 369 kts 200°
2026-05-08 03:40 26.93374 -79.70867 19005 ft 366 kts 200°
2026-05-08 03:40 26.90932 -79.71646 18605 ft 363 kts 200°
2026-05-08 03:40 26.88516 -79.72415 18158 ft 360 kts 200°
2026-05-08 03:40 26.86109 -79.73183 17662 ft 358 kts 200°
2026-05-08 03:41 26.83720 -79.73947 17169 ft 356 kts 200°
2026-05-08 03:41 26.81350 -79.74707 16748 ft 352 kts 199°
2026-05-08 03:41 26.79754 -79.75216 16390 ft 352 kts 199°
2026-05-08 03:41 26.77405 -79.75959 15935 ft 350 kts 199°
2026-05-08 03:42 26.75070 -79.76694 15527 ft 347 kts 199°
2026-05-08 03:42 26.72749 -79.77424 15069 ft 346 kts 198°
2026-05-08 03:42 26.70440 -79.78152 14630 ft 344 kts 198°
2026-05-08 03:42 26.68172 -79.78937 14190 ft 341 kts 201°
2026-05-08 03:43 26.65947 -79.79815 13831 ft 337 kts 202°
2026-05-08 03:43 26.63757 -79.80730 13402 ft 334 kts 203°
2026-05-08 03:43 26.61600 -79.81648 12988 ft 330 kts 203°
2026-05-08 03:43 26.59461 -79.82552 12651 ft 325 kts 202°
2026-05-08 03:44 26.57358 -79.83429 12284 ft 321 kts 202°
2026-05-08 03:44 26.55266 -79.84293 11894 ft 319 kts 203°
2026-05-08 03:44 26.53232 -79.85191 11723 ft 309 kts 204°
2026-05-08 03:44 26.51270 -79.86112 11435 ft 304 kts 204°
2026-05-08 03:45 26.49335 -79.87042 11071 ft 302 kts 204°
2026-05-08 03:45 26.47408 -79.87970 10728 ft 300 kts 204°
2026-05-08 03:45 26.45490 -79.88886 10378 ft 299 kts 204°
2026-05-08 03:45 26.43578 -79.89793 10023 ft 298 kts 204°
2026-05-08 03:46 26.41674 -79.90691 9673 ft 296 kts 203°
2026-05-08 03:46 26.39784 -79.91581 9291 ft 293 kts 203°
2026-05-08 03:46 26.37939 -79.92510 8609 ft 290 kts 209°
2026-05-08 03:46 26.36171 -79.93645 7937 ft 288 kts 210°
2026-05-08 03:47 26.34487 -79.94729 7746 ft 283 kts 210°
2026-05-08 03:47 26.32750 -79.95848 7574 ft 285 kts 210°
2026-05-08 03:47 26.31037 -79.96951 7396 ft 285 kts 210°
2026-05-08 03:47 26.29322 -79.98050 7217 ft 284 kts 210°
2026-05-08 03:48 26.27605 -79.99150 7037 ft 284 kts 210°
2026-05-08 03:48 26.25895 -80.00245 6857 ft 283 kts 210°
2026-05-08 03:48 26.24194 -80.01336 6677 ft 282 kts 210°
2026-05-08 03:48 26.22496 -80.02427 6495 ft 281 kts 210°
2026-05-08 03:49 26.20805 -80.03515 6305 ft 279 kts 210°
2026-05-08 03:49 26.19202 -80.04713 6124 ft 278 kts 221°
2026-05-08 03:49 26.17943 -80.06334 5945 ft 278 kts 238°
2026-05-08 03:49 26.17130 -80.08273 5772 ft 277 kts 252°
2026-05-08 03:50 26.16520 -80.10307 5588 ft 277 kts 252°
2026-05-08 03:50 26.15910 -80.12335 5418 ft 276 kts 252°
2026-05-08 03:50 26.15309 -80.14361 5233 ft 275 kts 255°
2026-05-08 03:50 26.15015 -80.16452 5061 ft 272 kts 270°
2026-05-08 03:51 26.15029 -80.18564 4891 ft 274 kts 271°
2026-05-08 03:51 26.15046 -80.20688 4711 ft 274 kts 271°
2026-05-08 03:51 26.15057 -80.22806 4529 ft 273 kts 271°
2026-05-08 03:51 26.15066 -80.24903 4364 ft 272 kts 270°
2026-05-08 03:52 26.15080 -80.27021 3965 ft 275 kts 271°
2026-05-08 03:52 26.15100 -80.29139 3722 ft 270 kts 271°
2026-05-08 03:52 26.15059 -80.31185 3624 ft 259 kts 261°
2026-05-08 03:52 26.14416 -80.32995 3502 ft 249 kts 233°
2026-05-08 03:53 26.13120 -80.34188 3388 ft 240 kts 204°
2026-05-08 03:53 26.11536 -80.34601 3278 ft 230 kts 182°
2026-05-08 03:53 26.09998 -80.34402 3155 ft 220 kts 164°
2026-05-08 03:53 26.08623 -80.33675 2928 ft 217 kts 144°
2026-05-08 03:54 26.07561 -80.32522 2762 ft 211 kts 126°
2026-05-08 03:54 26.06901 -80.31117 2585 ft 202 kts 109°
2026-05-08 03:54 26.06660 -80.29599 2330 ft 198 kts 90°
2026-05-08 03:54 26.06653 -80.28112 2084 ft 184 kts 90°
2026-05-08 03:55 26.06646 -80.26752 1880 ft 162 kts 90°
2026-05-08 03:55 26.06640 -80.25555 1665 ft 150 kts 90°
2026-05-08 03:55 26.06635 -80.24420 1478 ft 144 kts 91°
2026-05-08 03:55 26.06629 -80.23310 1294 ft 143 kts 91°
2026-05-08 03:56 26.06623 -80.22213 1111 ft 141 kts 91°
2026-05-08 03:56 26.06617 -80.21123 936 ft 140 kts 91°
2026-05-08 03:56 26.06611 -80.20046 775 ft 138 kts 92°
2026-05-08 03:56 26.06606 -80.18985 608 ft 136 kts 92°
2026-05-08 03:57 26.06596 -80.17943 479 ft 134 kts 92°
2026-05-08 03:57 26.06599 -80.16900 285 ft 134 kts 91°
2026-05-08 03:57 26.06591 -80.15881 72 ft 132 kts 92°
2026-05-08 03:57 26.06579 -80.14993 23 ft 81 kts 89°
2026-05-08 03:58 26.06591 -80.14666 21 ft 12 kts 49°
2026-05-08 03:58 26.06636 -80.14670 19 ft 9 kts 344°
2026-05-08 03:58 26.06689 -80.14751 21 ft 16 kts 279°
2026-05-08 03:58 26.06696 -80.14878 21 ft 17 kts 279°
2026-05-08 03:59 26.06764 -80.14895 22 ft 11 kts 80°
2026-05-08 03:59 26.06767 -80.14790 20 ft 16 kts 91°
2026-05-08 03:59 26.06832 -80.14720 18 ft 17 kts 329°
2026-05-08 03:59 26.06930 -80.14773 20 ft 13 kts 14°
2026-05-08 04:00 26.06910 -80.14687 19 ft 15 kts 136°
2026-05-08 04:00 26.06837 -80.14602 17 ft 8 kts 112°
2026-05-08 04:00 26.06867 -80.14562 17 ft 5 kts 26°
2026-05-08 04:00 26.06869 -80.14561 17 ft 0 kts 20°
2026-05-08 04:01 26.06875 -80.14558 17 ft 3 kts 24°
2026-05-08 04:01 26.06876 -80.14558 17 ft 0 kts 24°